Location: Albany
(35.0170°S, 117.8920°E)
Time: 21:15:27
(UTC+08:00)

A-11 Canister half - Pass Details

Date: 28 January 2021
Orbit: 1525 x 1684 km, 47.3° (Epoch: 03 March)

Event Time Altitude Azimuth Distance (km) Brightness Sun altitude
Rises 10:41:18 0° 251° (WSW) 4,805 11.3 62.1°
Reaches altitude 10° 10:46:17 10° 272° (W) 3,779 10.9 63.0°
Maximum altitude 10:50:59 15° 302° (WNW) 3,371 10.9 63.8°
Drops below altitude 10° 10:55:38 10° 333° (NNW) 3,712 11.2 64.6°
Sets 11:00:30 0° 354° (N) 4,667 11.7 65.4°
